Вернуться в каталог

ONEWEB-0474

АктивенСвязьPO
NORAD 51654·PAYLOAD·🇬🇧 United Kingdom

Запущен Feb 10, 2022 с Guiana Space Centre

Loading…

Ближайшие Пролёты (ближайшие 24 часа)

TLE

СвежийSource: CelesTrak SupGP

Эпоха: Sep 14, 2026, 14:16 UTC

1 51654C 22012AJ  26257.59498100 -.00000760  00000+0 -21808-2 0  2578
2 51654  87.8901  18.4650 0001853  99.4604 312.0576 13.10368984    17

Отслеживайте ONEWEB-0474 в реальном времени с AllMySat

Download on the App Store